DateTimeUTC,F1_A11,F1_S11,BsB_S11,BsG_S11,BsR_S11,BbsB_S11,BbsG_S11,BbsR_S11,BaB_A11,BaG_A11,BaR_A11,Tu_S11,T_S11,Uu_S11,U_S11,P_S11,T1_A11
2021-01-26T06:00:00Z,00000200,21000000,,,,,,,-000.24,0000.25,-000.27,15.3,22.8,,00.0,0640.8,30.8
2021-01-26T06:01:00Z,00000200,21000000,,,,,,,0000.13,-000.22,0000.60,15.2,22.8,,00.0,0640.8,30.8
2021-01-26T06:02:00Z,00000200,21000000,,,,,,,0000.31,0000.57,0000.13,15.2,22.8,,00.0,0640.7,30.9
2021-01-26T06:03:00Z,00000200,61000000,,,,,,,0001.00,0001.26,0001.06,15.2,22.8,,00.0,0640.7,30.9
2021-01-26T06:04:00Z,00000200,41000000,0002.43,0001.65,0001.26,0001.12,-000.00,0000.20,0001.33,0000.97,0000.63,15.5,22.5,,00.0,0641.6,30.9
2021-01-26T06:05:00Z,00000200,01000000,0001.97,0001.38,0001.48,0000.60,0000.19,0000.22,0001.25,0001.04,0000.78,15.6,22.5,,00.0,0641.6,30.9
2021-01-26T06:06:00Z,00000200,01000000,0001.27,0001.88,0001.06,0000.08,0000.19,0000.44,0001.25,0001.41,0001.19,15.6,22.5,,00.0,0641.6,30.9
2021-01-26T06:07:00Z,00000200,01000000,0002.69,0001.51,0001.14,0000.41,0000.23,-000.03,0001.49,0000.93,0000.52,15.6,22.5,,00.0,0641.6,30.9
2021-01-26T06:08:00Z,00000200,01000000,0002.33,0001.51,0001.22,0000.18,0000.15,0000.51,0001.16,0001.47,0000.74,15.7,22.5,,00.0,0641.6,30.9
2021-01-26T06:09:00Z,00000200,01000000,0002.85,0002.01,0001.27,0000.38,-000.01,-000.10,0001.41,0000.45,0000.73,15.7,22.5,,00.0,0641.6,30.9
2021-01-26T06:10:00Z,00000200,01000000,0002.02,0001.61,0001.03,0000.49,0000.02,0000.30,0001.12,0001.39,0001.02,15.7,22.5,,00.0,0641.6,30.9
2021-01-26T06:11:00Z,00000200,01000000,0002.38,0001.68,0001.02,0000.59,0000.20,0000.23,0000.88,0000.94,0000.71,15.7,22.5,,00.0,0641.6,30.9
2021-01-26T06:12:00Z,00000200,01000000,0001.84,0001.63,0001.34,0000.38,0000.13,0000.21,0001.47,0001.32,0000.88,15.8,22.5,,00.0,0641.7,30.9
2021-01-26T06:13:00Z,00000200,01000000,0002.05,0001.73,0001.15,0000.71,0000.21,0000.11,0000.84,0000.94,0000.77,15.8,22.5,,00.0,0641.7,30.9
2021-01-26T06:14:00Z,00000200,01000000,0002.56,0001.84,0001.14,0000.68,0000.31,0000.15,0001.04,0000.96,0000.61,15.8,22.5,,00.0,0641.7,30.9
2021-01-26T06:15:00Z,00000200,01000000,0002.36,0001.82,0001.15,0000.69,0000.21,0000.14,0000.95,0000.68,0000.50,15.8,22.5,,00.0,0641.7,30.9
2021-01-26T06:16:00Z,00000200,01000000,0002.60,0002.07,0001.47,0000.48,0000.43,0000.11,0001.23,0001.06,0001.03,15.8,22.5,,00.0,0641.7,30.9
2021-01-26T06:17:00Z,00000200,01010000,0002.42,0001.67,0001.34,0000.29,0000.17,0000.35,0001.29,0001.19,0000.81,15.8,22.5,,00.0,0641.7,30.9
2021-01-26T06:18:00Z,00000200,01000000,0002.64,0001.79,0001.22,0000.85,0000.23,0000.03,0001.01,0001.06,0000.91,15.8,22.5,,00.0,0641.7,30.9
2021-01-26T06:19:00Z,00000200,01000000,0003.04,0001.73,0001.01,0000.34,0000.31,0000.15,0001.42,0001.30,0000.67,15.8,22.5,,00.0,0641.7,30.9
2021-01-26T06:20:00Z,00000200,01000000,0002.48,0001.92,0001.21,0000.56,0000.09,0000.29,0001.17,0000.79,0000.74,15.8,22.5,,00.0,0641.7,30.9
2021-01-26T06:21:00Z,00000200,01000000,0002.19,0001.98,0001.37,0000.39,0000.38,0000.36,0001.59,0001.38,0000.80,15.8,22.5,,00.0,0641.7,30.9
2021-01-26T06:22:00Z,00000200,01000000,0002.30,0001.58,0001.16,0000.02,-000.01,0000.06,0000.81,0001.10,0001.06,15.8,22.5,,00.0,0641.7,30.9
2021-01-26T06:23:00Z,00000200,01000000,0002.63,0001.71,0001.06,0000.43,0000.13,0000.24,0001.19,0000.75,0000.14,15.8,22.5,,00.0,0641.7,30.9
2021-01-26T06:24:00Z,00000200,01000000,0001.97,0001.61,0001.39,0000.56,0000.39,-000.01,0001.43,0000.96,0001.54,15.8,22.5,,00.0,0641.7,30.9
2021-01-26T06:25:00Z,00000200,01000000,0002.14,0001.95,0001.35,0000.97,0000.28,0000.24,0001.01,0000.65,0000.69,15.9,22.5,,00.0,0641.7,30.9
2021-01-26T06:26:00Z,00000200,01000000,0001.85,0001.70,0001.50,0000.76,0000.16,0000.09,0000.81,0001.66,0000.85,15.9,22.6,,00.0,0641.8,30.9
2021-01-26T06:27:00Z,00000200,01000000,0003.32,0001.37,0000.92,0000.64,0000.06,0000.13,0001.32,0001.13,0000.54,15.9,22.6,,00.0,0641.8,30.9
2021-01-26T06:28:00Z,00000200,01000000,0002.91,0001.69,0000.92,0000.41,0000.12,0000.03,0001.40,0000.96,0000.93,15.9,22.6,,00.0,0641.8,30.9
2021-01-26T06:29:00Z,00000200,01000000,0002.84,0002.12,0001.15,-000.13,0000.18,0000.34,0000.95,0000.55,0000.19,15.9,22.6,,00.0,0641.7,30.9
2021-01-26T06:30:00Z,00000200,01000000,0002.96,0001.97,0001.42,0000.43,0000.18,0000.06,0001.41,0001.44,0001.10,15.9,22.6,,00.0,0641.7,30.9
2021-01-26T06:31:00Z,00000200,01000000,0002.71,0002.12,0001.28,0000.40,0000.27,0000.11,0001.13,0001.19,0000.99,15.9,22.6,,00.0,0641.8,30.9
2021-01-26T06:32:00Z,00000200,01000000,0003.10,0001.74,0001.39,0000.36,0000.46,0000.15,0001.17,0000.72,0000.70,16.0,22.6,,00.0,0641.8,30.9
2021-01-26T06:33:00Z,00000200,01000000,0002.42,0001.78,0001.33,0000.86,0000.32,0000.25,0000.92,0001.35,0000.80,16.0,22.6,,00.0,0641.8,30.9
2021-01-26T06:34:00Z,00000200,01000000,0002.76,0001.75,0001.23,0000.76,0000.14,-000.03,0001.56,0000.86,0000.88,16.0,22.6,,00.0,0641.8,30.9
2021-01-26T06:35:00Z,00000200,01000000,0002.99,0002.07,0001.26,0000.46,0000.32,0000.21,0001.12,0001.44,0000.93,16.0,22.6,,00.0,0641.7,30.9
2021-01-26T06:36:00Z,00000200,01000000,0002.55,0001.83,0001.31,0000.43,0000.11,0000.12,0001.42,0001.19,0000.99,16.0,22.6,,00.0,0641.7,30.9
2021-01-26T06:37:00Z,00000200,01000000,0003.67,0001.94,0001.22,0000.87,0000.21,0000.07,0001.41,0001.00,0001.03,16.1,22.7,,00.0,0641.7,30.9
2021-01-26T06:38:00Z,00000200,01000000,0002.88,0001.84,0001.11,0000.29,0000.20,-000.09,0001.12,0001.25,0000.83,16.1,22.7,,00.0,0641.7,30.9
2021-01-26T06:39:00Z,00000200,01000000,0003.36,0001.77,0001.45,0000.74,0000.50,0000.04,0001.35,0001.54,0000.80,16.1,22.7,,00.0,0641.7,30.9
2021-01-26T06:40:00Z,00000200,01000000,0002.99,0001.79,0001.33,0000.48,0000.21,0000.24,0001.89,0001.18,0001.06,16.1,22.7,,00.0,0641.7,30.9
2021-01-26T06:41:00Z,00000200,01000000,0002.84,0001.90,0001.43,0000.92,0000.33,-000.17,0001.55,0001.37,0001.04,16.1,22.7,,00.0,0641.7,30.9
2021-01-26T06:42:00Z,00000200,01000000,0002.71,0002.19,0001.32,0000.23,0000.31,0000.40,0001.08,0001.35,0001.09,16.1,22.7,,00.0,0641.7,30.9
2021-01-26T06:43:00Z,00000200,01000000,0002.23,0001.98,0001.57,0000.44,0000.16,0000.20,0001.59,0001.23,0000.72,16.2,22.7,,00.0,0641.7,30.9
2021-01-26T06:44:00Z,00000200,01000000,0002.75,0002.23,0001.65,0000.29,0000.18,0000.12,0001.43,0001.12,0000.92,16.2,22.7,,00.0,0641.6,30.9
2021-01-26T06:45:00Z,00000200,01000000,0003.16,0001.82,0001.53,0000.51,0000.08,0000.41,0001.36,0001.32,0001.12,16.2,22.7,,00.0,0641.6,30.9
2021-01-26T06:46:00Z,00000200,01000000,0002.24,0002.11,0001.39,0000.24,0000.30,0000.17,0001.45,0001.18,0000.95,16.1,22.7,,00.0,0641.6,30.9
2021-01-26T06:47:00Z,00000200,01000000,0003.23,0002.22,0001.65,-000.45,0000.22,0000.06,0001.92,0001.84,0000.62,16.1,22.7,,00.0,0641.5,30.9
2021-01-26T06:48:00Z,00000200,01000000,0002.43,0002.14,0001.48,0000.35,0000.29,0000.10,0001.44,0001.22,0001.43,16.1,22.7,,00.0,0641.5,30.9
2021-01-26T06:49:00Z,00000200,01000000,0003.66,0002.16,0001.40,0000.83,0000.19,0000.07,0001.49,0001.65,0001.22,16.1,22.7,,00.0,0641.5,30.9
2021-01-26T06:50:00Z,00000200,01000000,0003.43,0002.35,0001.74,0000.50,0000.22,0000.28,0001.62,0001.62,0001.02,16.1,22.7,,00.0,0641.5,30.9
2021-01-26T06:51:00Z,00000200,01000000,0002.99,0002.39,0001.69,0000.30,0000.16,0000.27,0001.79,0001.15,0000.98,16.1,22.7,,00.0,0641.5,30.9
2021-01-26T06:52:00Z,00000200,01000000,0003.41,0002.27,0001.75,0001.03,0000.06,0000.53,0001.68,0001.46,0001.50,16.2,22.8,,00.0,0641.4,30.9
2021-01-26T06:53:00Z,00000200,01000000,0003.06,0002.03,0001.48,0000.35,0000.22,0000.04,0001.05,0001.44,0000.46,16.2,22.8,,00.0,0641.5,30.9
2021-01-26T06:54:00Z,00000200,01000000,0002.94,0002.41,0001.70,-000.15,0000.37,0000.26,0001.80,0001.25,0001.31,16.2,22.8,,00.0,0641.4,30.9
2021-01-26T06:55:00Z,00000200,01000000,0002.81,0002.15,0001.34,0000.42,0000.15,0000.08,0001.58,0001.59,0001.25,16.2,22.8,,00.0,0641.5,30.9
2021-01-26T06:56:00Z,00000200,01000000,0003.09,0002.28,0001.75,0000.31,0000.13,-000.05,0001.43,0000.81,0000.80,16.2,22.8,,00.0,0641.5,30.9
2021-01-26T06:57:00Z,00000200,41000000,,,,,,,0000.78,0001.06,0000.33,16.3,22.9,,00.0,0641.5,30.9
2021-01-26T06:58:00Z,00000200,61000000,,,,,,,-000.21,-000.40,-000.04,15.8,23.0,,00.0,0640.5,30.9
2021-01-26T06:59:00Z,00000200,21000000,,,,,,,-000.60,-000.17,-000.48,15.8,23.1,,00.0,0640.5,30.9
